Regional Weather Roundup
Issued by NWS

Home | Current Version | Previous Version | Text Only | Print | Product List | Glossary Off
Versions: 1 2 3 4 5 6 7 8 9 10 11 12 13 14 15 16 17 18 19 20 21 22 23 24 25 26 27 28 29 30 31 32 33 34 35 36 37 38 39 40 41 42 43 44 45 46 47 48 49 50

000
ASUS43 KLSX 270259
RWRMO

WEATHER SUMMARY FOR MISSOURI
NATIONAL WEATHER SERVICE SPRINGFIELD MO
900 PM CST MON JAN 26 2015

NOTE: "FAIR" INDICATES FEW OR NO CLOUDS BELOW 12,000 FEET WITH NO
       SIGNIFICANT WEATHER AND/OR OBSTRUCTIONS TO VISIBILITY.
       CURRENT SKY AND/OR WEATHER CONDITIONS ARE NOT AVAILABLE FOR
       CHILLICOTHE AND FARMINGTON.

MOZ001>031-035>038-043-044-053-054-270400-
...NORTHERN AND WESTERN MISSOURI...

CITY           SKY/WX    TMP DP  RH WIND       PRES   REMARKS
KANSAS CTY INT PTCLDY    47  32  56 W7        30.00S
KANSAS C DTWN  CLEAR     50  33  52 W3        30.00R
LEE`S SUMMIT   CLEAR     47  31  53 W7        30.00R
ST JOSEPH      PTCLDY    33  28  81 SW3       30.01R
CHILLICOTHE      N/A     45  33  63 NW5       29.98R
KIRKSVILLE     PTCLDY    43  36  76 NW10      29.94R

$$
MOZ066>068-077>081-088>096-101>105-270400-
...SOUTHWEST MISSOURI...

CITY           SKY/WX    TMP DP  RH WIND       PRES   REMARKS
SPRINGFIELD    CLEAR     37  31  78 W5        29.99R
JOPLIN         CLEAR     50  34  54 NW3       30.01S

$$
MOZ032>034-039>042-045>050-055>058-069>072-270400-
...CENTRAL MISSOURI...

CITY           SKY/WX    TMP DP  RH WIND       PRES   REMARKS
COLUMBIA       CLEAR     43  35  73 W7        29.94R
JEFFERSON CITY CLEAR     39  33  79 NW3       29.95R
ROLLA          CLEAR     44  34  67 W8        29.92R
SEDALIA        CLEAR     44  33  65 W12       29.98R
OSAGE BEACH    CLEAR     45  34  65 W6        29.96R

$$
MOZ051-052-059>065-270400-
...EAST CENTRAL MISSOURI...

CITY           SKY/WX    TMP DP  RH WIND       PRES   REMARKS
ST LOUIS INTL  CLOUDY    37  29  72 S3        29.92S
SPIRIT OF STL  CLOUDY    34  30  85 CALM      29.92R
ST CHARLES     CLOUDY    34  30  85 CALM      29.92S

$$
MOZ072>076-082>087-097>100-106>115-270400-
...SOUTH CENTRAL AND SOUTHEAST MISSOURI...

CITY           SKY/WX    TMP DP  RH WIND       PRES   REMARKS
CAPE GIRARDEAU CLEAR     31  29  92 E3        29.94S
FARMINGTON     CLEAR     30  27  86 MISG      29.94R
POPLAR BLUFF   CLEAR     33  30  88 CALM      29.92S
WEST PLAINS    CLEAR     48  34  58 NW8       29.95R

$$


USA.gov is the U.S. government's official web portal to all federal, state and local government web resources and services.